Location: Asheville, NC
(35.6000°N, 82.5500°W)
Time: 04:40:39
(UTC-04:00)

Vanguard 1 - Pass Details

Date: 16 February 2018
Orbit: 650 x 3833 km, 34.2° (Epoch: 20 May)

Event Time Altitude Azimuth Distance (km) Brightness Sun altitude
Rises 14:51:31 0° 226° (SW) 6,614 15.3 33.6°
Reaches altitude 10° 14:56:58 10° 220° (SW) 5,066 15.2 32.9°
Maximum altitude 15:08:30 38° 158° (SSE) 2,213 12.5 31.4°
Drops below altitude 10° 15:15:12 10° 92° (E) 2,959 12.3 30.4°
Sets 15:17:31 0° 84° (E) 3,658 12.6 30.1°
